www.pogodaiklimat.ru

Погода и климат >> Архив погоды >> Япония >> Тёси


ПОГОДА в Тёси

  • Прогноз погоды в Тёси
  • Монитор погоды в Тёси

АРХИВ ПОГОДЫ в Тёси

Время (UTC), дата Ветер
(напр.,м/с)
 
Видим.   Явления Облачность Т
(С)
Тd
(С)
f
(%)
Тe
(С)
Тes
(С)
Комфортность P
(гПа)
Po
(гПа)
Тmin
(С)
Tmax
(С)
R
(мм)
R24
(мм)
S
(см)
07 9.09 Ю 8 9000 м дымка н/о +28.1 +25.5 86 +41 +41 опасность
перегрева
1007.8 1004.6
08 9.09 Ю 7 8000 м дымка н/о +27.5 +25.5 89 +40 +40 очень
душно
1008.5 1005.3
09 9.09 Ю 7 8000 м дымка н/о +26.7 +25.5 93 +39 +39 очень
душно
1009.0 1005.8
10 9.09 ЮЗ 7 7000 м дымка н/о +26.2 +25.2 94 +38 +38 очень
душно
1010.1 1006.9
11 9.09 ЮЗ 5 7000 м дымка н/о +26.2 +25.5 96 +38 +38 очень
душно
1010.9 1007.7
12 9.09 ЮЗ 4 6000 м дымка н/о +26.0 +25.3 96 +38 +38 очень
душно
1011.6 1008.4 +30.2 2
15 9.09 ЮЗ 5 6000 м дымка н/о +25.8 +25.5 98 +38 +38 очень
душно
1011.8 1008.6
16 9.09 Ю 4 5000 м дымка н/о +25.8 +25.6 99 +38 +38 очень
душно
1011.7 1008.5
17 9.09 ЮЗ 3 2400 м дымка н/о +25.6 +25.6 100 +37 +37 очень
душно
1011.6 1008.4
18 9.09 СЗ 2 1600 м в посл. час туман н/о +25.3 +25.3 100 +36 +36 очень
душно
1011.6 1008.4
19 9.09 СВ 2 1300 м дымка н/о +25.0 +25.0 100 +36 +36 очень
душно
1012.1 1008.9
21 9.09 В 3 200 м туман н/о +25.1 +25.1 100 +36 +36 очень
душно
1012.6 1009.4
23 9.09 З 2 6000 м в посл. час туман н/о +26.3 +26.1 99 +39 +39 очень
душно
1013.6 1010.4
00 10.09 С 3 10 км {туман} н/о +27.2 +25.8 92 +40 +40 очень
душно
1013.7 1010.5 +24.7
01 10.09 С 2 9000 м дымка н/о +27.6 +25.2 87 +40 +40 очень
душно
1013.3 1010.1
02 10.09 С 3 17 км н/о +27.2 +25.0 88 +39 +39 очень
душно
1013.3 1010.1
03 10.09 С 2 20 км н/о +28.0 +25.8 88 +42 +42 опасность
перегрева
1013.2 1010.0
04 10.09 В 2 20 км н/о +29.9 +26.1 80 +45 +45 опасность
перегрева
1012.3 1009.1
05 10.09 ЮВ 4 20 км н/о +28.8 +26.0 85 +43 +43 опасность
перегрева
1012.2 1009.0
06 10.09 ЮВ 3 20 км н/о +28.8 +25.8 84 +43 +43 опасность
перегрева
1012.3 1009.1
07 10.09 ЮВ 3 14 км н/о +27.1 +25.3 90 +39 +39 очень
душно
1012.3 1009.1
08 10.09 ЮВ 3 9000 м дымка н/о +26.7 +25.7 94 +39 +39 очень
душно
1012.5 1009.3
09 10.09 ЮВ 2 8000 м дымка н/о +26.6 +25.7 95 +39 +39 очень
душно
1013.1 1009.9
10 10.09 ЮВ 3 6000 м дымка н/о +26.0 +25.7 98 +38 +38 очень
душно
1013.4 1010.2
11 10.09 ЮВ 3 5000 м дымка н/о +26.2 +25.9 98 +39 +39 очень
душно
1014.3 1011.1
12 10.09 В 3 3800 м дымка н/о +26.2 +25.9 98 +39 +39 очень
душно
1015.1 1011.9 +30.6
13 10.09 СВ 4 2500 м дымка н/о +25.7 +25.4 98 +37 +37 очень
душно
1015.4 1012.2
15 10.09 СВ 2 600 м слаб. дождь н/о +25.8 +25.8 100 +38 +38 очень
душно
1014.9 1011.7
16 10.09 СВ 2 200 м слаб. дождь н/о +25.5 +25.5 100 +37 +37 очень
душно
1014.4 1011.2
17 10.09 СВ 4 200 м туман н/о +25.3 +25.3 100 +36 +36 очень
душно
1014.3 1011.1
18 10.09 СВ 4 300 м туман {дождь} н/о +24.9 +24.9 100 +35 +35 очень
душно
1014.2 1011.0 0.5
19 10.09 СВ 3 300 м туман н/о +24.8 +24.8 100 +35 +35 очень
душно
1014.2 1011.0
20 10.09 СВ 3 400 м туман н/о +24.9 +24.9 100 +35 +35 очень
душно
1014.2 1011.0
21 10.09 В 3 500 м туман {дождь} н/о +24.8 +24.8 100 +35 +35 очень
душно
1014.1 1010.9
22 10.09 ЮВ 3 300 м туман н/о +25.1 +25.1 100 +36 +36 очень
душно
1014.1 1010.9
23 10.09 В 2 4600 м в посл. час туман н/о +25.6 +25.6 100 +37 +37 очень
душно
1014.3 1011.1
00 11.09 ЮВ 3 8000 м дымка {дождь, туман} н/о +26.2 +25.7 97 +39 +39 очень
душно
1014.3 1011.1 +24.6 0.5
01 11.09 Ю 3 20 км н/о +28.2 +26.0 88 +42 +42 опасность
перегрева
1013.7 1010.5
02 11.09 Ю 4 14 км н/о +29.0 +25.2 80 +42 +42 опасность
перегрева
1012.7 1009.5
03 11.09 Ю 5 15 км н/о +29.5 +25.9 81 +44 +44 опасность
перегрева
1011.9 1008.7
04 11.09 Ю 6 17 км н/о +30.0 +26.2 80 +45 +45 опасность
перегрева
1011.0 1007.8
05 11.09 Ю 7 20 км н/о +30.1 +26.5 81 +46 +46 опасность
перегрева
1009.9 1006.7
06 11.09 Ю 7 16 км н/о +29.6 +26.4 83 +45 +45 опасность
перегрева
1009.5 1006.3
07 11.09 Ю 7 13 км н/о +28.4 +26.0 87 +43 +43 опасность
перегрева
1009.7 1006.5
08 11.09 Ю 7 9000 м дымка н/о +27.7 +25.9 90 +41 +41 опасность
перегрева
1009.1 1005.9
09 11.09 ЮЗ 7 13 км н/о +27.3 +25.9 92 +41 +41 опасность
перегрева
1010.1 1006.9
10 11.09 В 3 2500 м дождь н/о +24.5 +24.0 97 +34 +34 очень
душно
1010.7 1007.5
11 11.09 Ю 5 15 км слаб. дождь н/о +25.9 +24.9 94 +37 +37 очень
душно
1009.6 1006.4
12 11.09 СЗ 2 10 км в посл. час дождь н/о +25.5 +25.2 98 +37 +37 очень
душно
1010.1 1006.9 +30.7 14
13 11.09 СЗ 2 6000 м в посл. час дождь н/о +25.8 +25.6 99 +38 +38 очень
душно
1010.0 1006.8
14 11.09 СВ 2 8000 м дымка н/о +25.5 +25.0 97 +36 +36 очень
душно
1009.5 1006.3
15 11.09 С 3 9000 м слаб. дождь н/о +25.3 +25.0 98 +36 +36 очень
душно
1009.4 1006.2
16 11.09 С 8 9000 м слаб. дождь н/о +24.6 +24.1 97 +34 +34 очень
душно
1009.3 1006.1
17 11.09 С 7 13 км в посл. час дождь н/о +23.9 +23.2 96 +32 +32 очень
душно
1009.0 1005.8
18 11.09 СВ 5 13 км в посл. час дождь н/о +24.1 +23.6 97 +33 +33 очень
душно
1009.2 1006.0 0.5
19 11.09 С 9 20 км н/о +24.5 +20.8 80 +31 +31 очень
душно
1009.4 1006.2
20 11.09 СВ 10 20 км н/о +24.5 +20.2 77 +30 +30 очень
душно
1010.7 1007.5
21 11.09 СВ 8 20 км н/о +24.0 +20.7 82 +30 +30 очень
душно
1012.1 1008.9
23 11.09 СВ 9 20 км н/о +24.5 +19.8 75 +30 +30 очень
душно
1013.4 1010.2
00 12.09 СВ 8 20 км н/о +25.0 +19.8 73 +31 +31 очень
душно
1013.8 1010.6 +23.8 0.5
01 12.09 СВ 9 20 км н/о +24.9 +17.9 65 +29 +29 душно 1013.9 1010.7
02 12.09 СВ 9 20 км н/о +25.0 +18.0 65 +29 +29 душно 1013.7 1010.5
03 12.09 СВ 9 20 км н/о +24.9 +16.9 61 +29 +29 душно 1013.9 1010.7
04 12.09 СВ 8 20 км н/о +25.2 +16.9 60 +29 +29 душно 1013.7 1010.5
05 12.09 СВ 7 20 км н/о +25.3 +17.3 61 +29 +29 душно 1013.8 1010.6
06 12.09 В 7 20 км н/о +25.3 +15.3 54 +28 +28 жарко 1013.7 1010.5
07 12.09 В 7 20 км н/о +24.8 +15.7 57 +28 +28 жарко 1013.6 1010.4
08 12.09 В 6 20 км н/о +24.5 +15.7 58 +28 +28 душно 1014.1 1010.9
09 12.09 В 6 20 км н/о +24.1 +15.3 58 +27 +27 жарко 1014.5 1011.3
10 12.09 В 5 20 км н/о +24.0 +15.8 60 +27 +27 жарко 1015.0 1011.8
11 12.09 СВ 6 20 км н/о +23.7 +17.0 66 +27 +27 жарко 1015.8 1012.6
12 12.09 СВ 6 20 км н/о +23.6 +16.9 66 +27 +27 жарко 1016.0 1012.8 +25.7
13 12.09 СВ 6 20 км н/о +23.4 +15.7 62 +28 +28 душно 1016.2 1012.9
15 12.09 СВ 5 20 км н/о +22.8 +16.1 66 +27 +27 душно 1015.7 1012.4
16 12.09 СВ 6 20 км н/о +22.6 +16.4 68 +27 +27 душно 1015.8 1012.5
18 12.09 СВ 5 20 км н/о +22.6 +16.2 67 +27 +27 душно 1015.2 1011.9
19 12.09 СВ 5 20 км н/о +22.8 +16.4 67 +27 +27 душно 1015.6 1012.3
20 12.09 СВ 6 20 км н/о +22.8 +16.8 69 +28 +28 душно 1015.7 1012.4
21 12.09 СВ 6 20 км н/о +22.7 +16.5 68 +27 +27 душно 1015.9 1012.6
22 12.09 СВ 7 20 км н/о +22.7 +16.5 68 +27 +27 душно 1016.5 1013.2
23 12.09 СВ 6 20 км н/о +22.8 +16.4 67 +27 +27 душно 1017.4 1014.1
00 13.09 СВ 6 20 км н/о +23.2 +17.0 68 +28 +28 душно 1017.3 1014.0 +22.4
01 13.09 СВ 7 20 км н/о +23.3 +16.8 67 +28 +28 душно 1017.6 1014.3
02 13.09 СВ 8 20 км н/о +23.6 +16.9 66 +27 +27 жарко 1017.4 1014.1
03 13.09 СВ 7 20 км н/о +23.6 +17.1 67 +27 +27 жарко 1016.8 1013.5
04 13.09 СВ 7 20 км н/о +23.3 +17.1 68 +28 +28 душно 1016.1 1012.8
05 13.09 СВ 8 20 км н/о +23.2 +17.2 69 +28 +28 душно 1016.3 1013.0
06 13.09 СВ 8 20 км н/о +23.0 +16.8 68 +28 +28 душно 1016.1 1012.8
08 13.09 СВ 7 20 км н/о +22.6 +16.6 69 +27 +27 душно 1017.1 1013.8
09 13.09 СВ 6 20 км н/о +22.4 +16.7 70 +27 +27 душно 1016.9 1013.6
10 13.09 СВ 6 20 км н/о +22.4 +18.0 76 +27 +27 душно 1017.2 1013.9
11 13.09 СВ 7 20 км н/о +22.6 +18.6 78 +28 +28 душно 1017.5 1014.2
12 13.09 СВ 8 20 км н/о +22.6 +18.2 76 +28 +28 душно 1017.5 1014.2 +24.7
13 13.09 СВ 8 20 км н/о +22.8 +18.4 76 +28 +28 душно 1017.3 1014.0
14 13.09 СВ 8 20 км в посл. час дождь н/о +22.7 +18.5 77 +28 +28 душно 1016.9 1013.6
15 13.09 С 9 20 км {дождь} н/о +22.6 +19.4 82 +29 +29 очень
душно
1016.2 1012.9
16 13.09 С 5 6000 м слаб. дождь н/о +21.8 +20.1 90 +27 +27 душно 1015.7 1012.4
17 13.09 СВ 8 3900 м дождь н/о +22.0 +19.9 88 +28 +28 душно 1015.3 1012.0
18 13.09 СВ 9 20 км в посл. час дождь н/о +21.8 +20.1 90 +27 +27 душно 1015.2 1011.9 3
19 13.09 С 9 20 км слаб. дождь н/о +21.6 +20.3 92 +27 +27 душно 1015.7 1012.4
21 13.09 С 2 13 км слаб. дождь н/о +22.3 +21.3 94 +29 +29 очень
душно
1015.6 1012.3
00 14.09 СЗ 2 13 км {дождь} н/о +23.9 +21.6 87 +31 +31 очень
душно
1015.3 1012.1 +21.5 4
01 14.09 ЮВ 5 20 км н/о +26.4 +19.1 64 +32 +32 очень
душно
1014.9 1011.7
02 14.09 ЮВ 5 20 км н/о +26.2 +18.9 64 +31 +31 очень
душно
1014.4 1011.2
03 14.09 ЮВ 5 20 км н/о +26.9 +17.7 57 +31 +31 душно 1014.1 1010.9
04 14.09 ЮВ 5 20 км н/о +27.4 +19.2 61 +33 +33 очень
душно
1013.5 1010.3
05 14.09 ЮВ 5 20 км н/о +26.8 +19.4 64 +32 +32 очень
душно
1013.5 1010.3
06 14.09 ЮВ 5 20 км в посл. час дождь н/о +26.3 +19.9 68 +32 +32 очень
душно
1013.3 1010.1 0.0
07 14.09 В 7 20 км в посл. час дождь н/о +26.3 +19.9 68 +32 +32 очень
душно
1013.2 1010.0
08 14.09 ЮВ 7 20 км н/о +25.6 +19.5 69 +31 +31 очень
душно
1013.2 1010.0
09 14.09 ЮВ 6 20 км {дождь} н/о +24.9 +18.8 69 +30 +30 душно 1013.5 1010.3
10 14.09 В 6 20 км н/о +24.8 +18.7 69 +30 +30 душно 1013.8 1010.6
11 14.09 В 6 20 км н/о +24.5 +18.9 71 +29 +29 душно 1014.1 1010.9
12 14.09 В 5 20 км {дождь} н/о +24.4 +17.4 65 +28 +28 душно 1013.9 1010.7 +28.0 0.0
13 14.09 В 4 20 км н/о +24.2 +17.9 68 +28 +28 душно 1013.7 1010.5
14 14.09 В 3 20 км н/о +23.5 +18.6 74 +28 +28 душно 1013.2 1010.0
15 14.09 СВ 3 20 км н/о +23.3 +19.3 78 +30 +30 очень
душно
1012.8 1009.6
16 14.09 СВ 3 20 км н/о +22.6 +19.0 80 +28 +28 душно 1012.4 1009.1
17 14.09 С 4 20 км н/о +23.3 +19.3 78 +30 +30 очень
душно
1012.0 1008.8
18 14.09 С 5 20 км н/о +23.5 +19.5 78 +29 +29 душно 1011.7 1008.5
19 14.09 С 6 20 км н/о +23.6 +19.8 79 +29 +29 душно 1011.7 1008.5
20 14.09 С 6 20 км н/о +23.5 +19.9 80 +29 +29 душно 1011.9 1008.7
21 14.09 С 7 20 км н/о +23.5 +20.1 81 +29 +29 душно 1011.8 1008.6
22 14.09 СВ 6 20 км н/о +23.8 +20.2 80 +29 +29 душно 1011.4 1008.2
23 14.09 СВ 6 20 км н/о +24.2 +20.3 79 +30 +30 очень
душно
1011.3 1008.1
00 15.09 С 6 20 км н/о +24.9 +21.6 82 +32 +32 очень
душно
1011.3 1008.1 +22.4
01 15.09 С 7 20 км н/о +26.0 +21.9 78 +33 +33 очень
душно
1011.0 1007.8
02 15.09 С 9 20 км н/о +25.2 +21.9 82 +32 +32 очень
душно
1010.4 1007.2
03 15.09 С 9 20 км н/о +25.4 +22.3 83 +33 +33 очень
душно
1009.7 1006.5
04 15.09 С 9 20 км н/о +24.9 +21.8 83 +32 +32 очень
душно
1008.9 1005.7
05 15.09 СВ 9 20 км н/о +25.4 +21.1 77 +32 +32 очень
душно
1008.4 1005.2
06 15.09 СВ 7 14 км слаб. дождь н/о +24.5 +22.4 88 +32 +32 очень
душно
1008.0 1004.8 0.0
07 15.09 СВ 7 19 км в посл. час дождь н/о +24.8 +22.9 89 +33 +33 очень
душно
1007.9 1004.7
08 15.09 СВ 8 15 км в посл. час дождь н/о +24.2 +23.0 93 +32 +32 очень
душно
1007.6 1004.4
09 15.09 СВ 7 18 км слаб. дождь н/о +24.0 +23.0 94 +32 +32 очень
душно
1008.0 1004.8
10 15.09 СВ 8 14 км слаб. дождь н/о +23.7 +23.0 96 +31 +31 очень
душно
1008.0 1004.8
11 15.09 СВ 9 17 км слаб. дождь н/о +23.4 +22.7 96 +33 +33 очень
душно
1008.3 1005.1
12 15.09 СВ 11 20 км в посл. час дождь н/о +23.5 +22.7 95 +31 +31 очень
душно
1007.8 1004.6 +26.2 0.0
13 15.09 СВ 11 6000 м слаб. дождь н/о +22.9 +22.4 97 +31 +31 очень
душно
1006.8 1003.6
14 15.09 СВ 12 1700 м дождь н/о +22.7 +22.5 99 +31 +31 очень
душно
1006.5 1003.3
15 15.09 С 10 6000 м слаб. дождь н/о +22.9 +22.7 99 +31 +31 очень
душно
1005.8 1002.6
16 15.09 С 12 2500 м дождь н/о +23.0 +22.8 99 +32 +32 очень
душно
1004.8 1001.6
17 15.09 СВ 10 2500 м слаб. дождь н/о +22.9 +22.9 100 +32 +32 очень
душно
1004.6 1001.4
18 15.09 СВ 10 1400 м дождь н/о +23.0 +23.0 100 +32 +32 очень
душно
1004.2 1001.0 31
19 15.09 СВ 7 2800 м дождь н/о +23.4 +23.4 100 +33 +33 очень
душно
1003.9 1000.7
21 15.09 Ю 3 3700 м слаб. дождь н/о +24.7 +24.7 100 +35 +35 очень
душно
1003.8 1000.6
22 15.09 Ю 3 3700 м дождь н/о +24.5 +24.5 100 +34 +34 очень
душно
1003.6 1000.4
23 15.09 СЗ 2 3800 м дождь н/о +24.1 +24.1 100 +33 +33 очень
душно
1003.3 1000.1
00 16.09 СВ 8 1300 м сильн. дождь н/о +23.6 +23.6 100 +32 +32 очень
душно
1003.0 999.8 +22.7 70
01 16.09 СВ 8 1700 м сильн. дождь н/о +23.2 +23.2 100 +33 +33 очень
душно
1002.1 998.9
02 16.09 С 6 1500 м сильн. дождь н/о +23.7 +23.7 100 +32 +32 очень
душно
1000.7 997.5
03 16.09 СЗ 4 2500 м дождь н/о +24.2 +24.2 100 +33 +33 очень
душно
1001.0 997.8
04 16.09 С 7 2700 м слаб. дождь н/о +23.5 +23.5 100 +32 +32 очень
душно
1000.1 996.9
05 16.09 С 7 3700 м слаб. дождь н/о +23.7 +23.7 100 +32 +32 очень
душно
999.4 996.2

 

Местоположение метеостанции Тёси (Япония): широта 35.73 долгота 140.85 высота над уровнем моря 28 м.

В архиве по умолчанию представлена погода в Тёси за последнюю неделю. Архивные данные за месяц целиком и за предыдущие месяцы, начиная с января 2011 года, Вы можете получить, выбрав интересующий диапазон дат из раскрывающегося списка и нажав кнопку "Ввод!".


*Определитесь, кто Вы:
робот инопланетянин человек

Внимание! Время в таблицах - всемирное. Для получения местного времени необходимо прибавить поправку, которая равна 9 ч.

Смотрите также архив погоды в соседних городах и на ближайших метеорологических станциях:

Погода в Тибе (Япония) (69 км)
Погода в Мито (Япония) (80 км)
Погода в Кацууре (Япония) (81 км)
Погода в Токио (Япония) (99 км)
Погода в Иокогаме (Япония) (114 км)
Погода в Татеяме (Япония) (123 км)
Погода в Уцуномии (Япония) (127 км)
Погода в Онахаме (Япония) (136 км)
Погода в Кумугае (Япония) (140 км)
Погода в Чичибу (Япония) (164 км)

Пояснения к столбцам:

Ветер - указаны скорость ветра в м/с - средняя за 10 мин, порывы в срок и между сроками (в фигурных скобках) и направление, откуда дует ветер: С - северный, СВ - северо-восточный, В - восточный, ЮВ - юго-восточный, Ю - южный, ЮЗ - юго-западный, З - западный, СЗ - северо-западный.
Видимость - горизонтальная дальность видимости в метрах или километрах. При видимости от 1 до 10 км при отсутствии осадков обычно наблюдается дымка, при ухудшении видимости до 1 км и менее - туман. В сухую погоду видимость может ухудшаться дымом, пылью или мглою.
Явления - указаны атмосферные явления, наблюдавшиеся в срок или в последний час перед сроком; фигурными скобками обозначены явления, наблюдавшиеся между сроками (за 1-3 часа до срока); квадратными скобками обозначены град или гололедные отложения с указанием их диаметра в мм.
Облачность - указаны через наклонную черту общая и нижняя облачность в баллах и высота нижней границы облаков в метрах; квадратными скобками обозначены формы облаков: Ci - перистые, Cs - перисто-слоистые, Cc - перисто-кучевые, Ac - высококучевые, As - высокослоистые, Sc - слоисто-кучевые, Ns - слоисто-дождевые, Cu - кучевые, Cb - кучево-дождевые. Подробнее классификацию облаков см. в Атласе облаков (PDF).
T - Температура воздуха - температура, измеренная на высоте 2 м над землей.
Td - Температура точки росы - температура, при понижении до которой содержащийся в воздухе водяной пар достигнет насыщения.
f - Относительная влажность воздуха - влажноcть воздуха, измеренная на высоте 2 м над землей.
Te - Эффективная температура - температура, которую ощущает одетый по сезону человек в тени. Характеристика душности погоды. При расчете учитывается влияние влажности воздуха и скорости ветра на теплоощущения человека.
Tes - Эффективная температура на солнце - температура, которую ощущает человек, с поправкой на солнечный нагрев. Характеристика знойности погоды. Зависит от высоты солнца над горизонтом, облачности и скорости ветра. Ночью, в пасмурную погоду, а также при ветре 12 м/с и более поправка равна нулю.
P - Атмосферное давление - приведенное к уровню моря атмосферное давление.
Po - Атмосферное давление - измеренное на уровне метеостанции атмосферное давление.
Tmin - Минимальная температура - минимум температуры воздуха на высоте 2 м над землей.
Tmax - Максимальная температура - максимум температуры воздуха на высоте 2 м над землей.
R - Количество осадков - Количество выпавших осадков за период времени, мм. При наведении курсора мыши на число - период времени, за который выпало указанное количество осадков.
R24 - Количество осадков - Количество выпавших осадков за 24 часа, мм.
S - Снежный покров - Высота снежного покрова, см. При наведении курсора мыши на число - состояние снежного покрова и степень покрытия местности в баллах.